Погода в 1-м Комиссаровском

Россия / Омская область     54°30′16″N   72°43′29″E
темп.,
°C
ветер,
м/с
пор.,
м/с
влажн.,
%
обл.,
%
осадки,
мм/ч
давл.,
гПа
погр.,
м
23 января, сб
сб2300:00−23юз239898 0.1 102277
03:00−23зюз239891 0.1 102344
06:00−25з239991 0.1 102420
09:00−26ссз349894 0.1 1027124
12:00−26ссз349894 0.1 1028136
15:00−29сз359428 0.0 1032221
18:00−31сз349694 0.0 103359
21:00−33сз3495100 0.0 103770
24 января, вс
вс2400:00−35сз349599 0.0 103947
03:00−37сз349655 0.0 103957
06:00−35зсз249677 0.0 1039129
09:00−35зсз2295100 0.0 104173
12:00−36зсз11942 0.0 104561
15:00−31з129187 0.0 1041186
18:00−36ю009751 0.0 104219
21:00−36ююв339335 0.0 104528
25 января, пн
пн2500:00−33ююв479367 0.0 1044148
03:00−30ююв5892100 0.0 1042246
06:00−34вюв349477 0.0 1044102
09:00−26ююв5998100 0.6 1037294
12:00−30вюв4693100 0.0 1043210
15:00−29вюв4693100 0.0 1041231
18:00−20вюв3598100 0.7 1033166
21:00−22вюв239896 0.1 103335
26 января, вт
вт2600:00−31вюв479774 0.0 1041166
03:00−31вюв4797100 0.0 1041152
06:00−24ююв119956 0.0 103420
09:00−20ююв239899 0.0 103487
12:00−28вюв5796100 0.0 1042231
15:00−26вюв4697100 0.1 1041242
18:00−7ююз4896100 1.2 1028253
21:00−27вюв489796 0.1 1042222
27 января, ср
ср2700:00−5зюз6129397 0.6 1026360
03:00−27юв469897 0.0 1041133
06:00−24ююв479899 0.1 1040227
09:00−9зюз6129399 0.0 1025310
12:00−19ююв5797100 0.6 1037231
15:00−14ю5896100 0.7 1034216
18:00−5з71292100 0.1 1025526
21:00−6з61193100 0.0 1025458